Date,TemperatureHighF,TemperatureAvgF,TemperatureLowF,DewpointHighF,DewpointAvgF,DewpointLowF,HumidityHigh,HumidityAvg,HumidityLow,PressureMaxIn,PressureMinIn,WindSpeedMaxMPH,WindSpeedAvgMPH,GustSpeedMaxMPH,PrecipitationSumIn
2013-1-1,50.1,47.9,44.2,48.7,41.9,31.6,95,81,52,30.11,29.96,4,1,6,0.25
2013-1-2,49.6,48.1,44.9,48.5,43.9,36.8,96,86,71,30.15,29.92,3,0,5,0.11
2013-1-3,44.9,41.2,33.8,38.4,36.2,30.3,93,82,76,30.29,30.12,1,0,5,0.00
2013-1-4,50.6,39.8,29.6,32.3,27.4,21.9,89,64,40,30.37,30.24,4,1,8,0.01
2013-1-5,48.5,40.8,29.9,33.5,28.0,23.5,83,61,46,30.41,30.24,3,1,0,0.00
2013-1-6,53.9,46.5,42.0,43.2,37.8,33.2,87,72,58,30.25,30.05,4,1,6,0.01
2013-1-7,50.7,41.3,32.5,33.1,31.0,28.2,88,69,47,30.45,30.22,2,1,5,0.00
2013-1-8,51.4,40.9,32.2,42.7,36.0,30.4,93,83,66,30.49,30.38,2,0,4,0.01
2013-1-9,63.8,51.1,40.2,54.7,47.0,38.2,95,86,71,30.46,30.38,1,0,2,0.00
2013-1-10,66.7,56.4,49.5,52.6,47.0,40.3,96,73,50,30.50,30.37,1,0,0,0.00
2013-1-11,54.3,48.7,46.5,48.8,46.8,45.1,96,93,78,30.37,30.17,1,0,5,0.16
2013-1-12,66.8,56.7,48.3,63.9,55.4,47.2,98,96,90,30.17,30.09,0,0,2,0.01
2013-1-13,70.3,62.4,58.1,63.6,59.7,57.0,97,91,78,30.13,30.04,5,1,9,0.00
2013-1-14,64.1,62.4,60.2,63.2,60.7,58.6,97,94,90,30.11,30.05,1,0,3,0.35
2013-1-15,62.3,48.1,42.1,61.4,47.2,41.3,100,97,96,30.19,30.08,3,1,7,0.18
2013-1-16,50.8,45.8,42.0,50.0,44.9,41.2,100,97,96,30.08,29.98,2,0,4,0.05
2013-1-17,51.4,46.2,34.6,50.6,45.3,33.6,98,97,95,30.18,29.83,8,2,16,2.36
2013-1-18,47.1,38.8,31.4,34.8,30.4,25.7,97,74,44,30.53,30.21,2,0,0,0.01
2013-1-19,55.0,41.5,30.6,34.5,29.4,26.2,84,64,37,30.51,30.21,5,1,7,0.00
2013-1-20,62.9,47.5,37.9,41.0,32.9,29.9,76,58,36,30.17,30.02,6,1,8,0.00
2013-1-21,59.9,46.2,34.2,40.1,32.0,21.1,95,62,32,30.08,29.91,8,2,13,0.00
2013-1-22,42.1,36.9,30.9,21.5,11.9,2.8,46,36,22,30.24,30.02,6,2,11,0.00
2013-1-23,46.2,36.2,27.0,29.1,18.0,7.6,67,48,36,30.38,30.07,5,1,11,0.00
2013-1-24,47.5,38.6,29.2,32.4,20.8,6.4,82,51,30,30.49,29.99,5,2,12,0.00
2013-1-25,27.9,26.4,23.9,25.3,15.3,8.0,90,64,45,30.53,30.16,4,1,7,0.01
2013-1-26,43.5,34.2,28.0,36.4,30.6,26.0,96,87,66,30.38,30.13,2,0,3,0.02
2013-1-27,43.6,35.7,27.7,31.0,27.4,23.3,90,73,57,30.60,30.41,2,1,6,0.00
2013-1-28,50.6,42.6,37.9,45.4,36.4,31.9,85,79,74,30.49,30.27,2,1,6,0.02
2013-1-29,71.0,56.5,43.4,60.1,51.4,42.1,96,84,64,30.26,30.03,4,0,4,0.00
2013-1-30,71.0,64.7,54.0,62.6,60.0,51.1,95,85,69,30.01,29.40,8,2,11,0.65
2013-1-31,50.9,44.9,37.8,47.8,31.8,22.4,89,62,39,30.02,29.52,9,5,17,0.01